This is the latest recevied weather packets stored in our database for station/object W0PE-1. If no packets are shown the sender has not sent any weather packets the latest 10 day(s).
| Time | Temp. | Humidity | Pressure | Rain* | Wind** | Luminosity | Snow |
|---|---|---|---|---|---|---|---|
| 1778224507 | 16.11° C | 86% | 1015.5 hPa | 0 mm | - | - | - |
| 1778223605 | 16.11° C | 86% | 1015.5 hPa | 0 mm | - | - | - |
| 1778222704 | 16.11° C | 85% | 1015.4 hPa | 0 mm | - | - | - |
| 1778221804 | 16.11° C | 85% | 1015.4 hPa | 0 mm | - | - | - |
| 1778220904 | 16.67° C | 84% | 1015.3 hPa | 0 mm | - | - | - |
| 1778220003 | 16.67° C | 84% | 1015.4 hPa | 0 mm | - | - | - |
| 1778219103 | 16.67° C | 83% | 1015.5 hPa | 0 mm | - | - | - |
| 1778218202 | 16.67° C | 82% | 1015.5 hPa | 0 mm | - | - | - |
| 1778217301 | 16.67° C | 82% | 1015.4 hPa | 0 mm | - | - | - |
| 1778216462 | 16.67° C | 81% | 1015.3 hPa | 0 mm | - | - | - |
| 1778215573 | 17.22° C | 80% | 1015.3 hPa | 0 mm | - | - | - |
| 1778214660 | 17.22° C | 79% | 1015.1 hPa | 0 mm | - | - | - |
| 1778213761 | 17.22° C | 78% | 1014.8 hPa | 0 mm | - | - | - |
| 1778212859 | 17.78° C | 77% | 1014.6 hPa | 0 mm | - | - | - |
| 1778211961 | 18.33° C | 76% | 1014.6 hPa | 0 mm | - | - | - |
| 1778211062 | 18.33° C | 74% | 1014.2 hPa | 0 mm | - | - | - |
| 1778210158 | 18.89° C | 73% | 1014.1 hPa | 0 mm | - | - | - |
| 1778209257 | 19.44° C | 71% | 1013.7 hPa | 0 mm | - | - | - |
| 1778208364 | 20° C | 69% | 1013.6 hPa | 0 mm | - | - | - |
| 1778207458 | 20.56° C | 67% | 1013.2 hPa | 0 mm | - | - | - |
| 1778206564 | 21.11° C | 66% | 1013.1 hPa | 0 mm | - | - | - |
| 1778205658 | 22.22° C | 64% | 1012.9 hPa | 0 mm | - | - | - |
| 1778204758 | 22.22° C | 63% | 1012.9 hPa | 0 mm | - | - | - |
| 1778203854 | 22.78° C | 63% | 1012.7 hPa | 0 mm | - | - | - |
| 1778202967 | 22.78° C | 62% | 1012.8 hPa | 0 mm | - | - | - |
* Rain latest hour (hover to see other rain measurements)
** Current wind speed in m/s (hover to see current wind gust speed)